2020-079P (46840 NORAD) Tracking and Keplerian Element Data

This shows tracking and keplerian element data for the satellite.

Feedback or suggestion? Click here.




ElementValue
Catalog46840
Name2020-079P
Epoch Orbit305
Epoch Day331.1200173
Epoch Year2020
RAAN42.9504
Inclination97.2662
Eccentricity0.000824
Argument of Perigee187.9583
Mean Anonmoly235.1975
Mean Motion15.31704598
Decay Rate3.841E-05
L11 46840U 20079P 20331.12001730 .00003841 00000-0 12786-3 0 9996
L22 46840 97.2662 42.9504 0008240 187.9583 235.1975 15.31704598 3058

Live tracking and technical data element details for 2020-079P (NORAD 46840). 2020-079P can be tracked NOW for your location showing map with azimuth and elevation plus other details from your city location.

Track the satellite on the map from your city or location and see movement details for azimuth, elevation, latitude, longitude, range, height, and movement on the map or in text.







IsCatalogInMostPopularTable: catalog: 46840, numindb: 4
Update: records affected: 1



GetName: 46840 2020-079P

Hit Count: updated at: Thu, 26 Nov 2020 17:49:16 GMT